Skip Page Navigation
NASA JPL Caltech
NASA Logo - Jet Propulsion Laboratory + View the NASA Portal
+ Near-Earth Object (NEO) Program
Search JPL
JPL Home Earth Solar System Stars & Galaxies Technology
JPL Solar System Dynamics
BODIES ORBITS EPHEMERIDES TOOLS PHYSICAL DATA DISCOVERY FAQ SITE MAP
JPL Small-Body Database Browser
Search: [ help ]  
11336 Piranesi (1996 NS3)
Classification: Main-belt Asteroid          SPK-ID: 2011336
Ephemeris | Orbit Diagram | Orbital Elements | Physical Parameters | Discovery Circumstances ]

[ show orbit diagram ]
Orbital Elements at Epoch 2456400.5 (2013-Apr-18.0) TDB
Reference: MPO240297 (heliocentric ecliptic J2000)
 Element Value Uncertainty (1-sigma)   Units 
e 0.0889378 n/a  
a 2.5378634 n/a AU
q 2.3121514 n/a AU
i 2.54373 n/a deg
node 136.57602 n/a deg
peri 167.06301 n/a deg
M 59.45865 n/a deg
tp 2456156.5991468
(2012-Aug-17.09914680)
n/a JED
period 1476.7289060
4.04
n/a
n/a
d
yr
n 0.24378205 n/a deg/d
Q 2.7635754 n/a AU
  Orbit Determination Parameters
   # obs. used (total)      697  
   first obs. used      1992-??-??  
   last obs. used      2012-09-19  
   # oppositions      14  
   planetary ephem.      DE403  
   condition code      0  
   fit RMS      0.57  
   data source      MPC:mpn  
   producer      MPCLINUX  

Additional Information
 T_jup = 3.440 

Ephemeris | Orbit Diagram | Orbital Elements | Physical Parameters | Discovery Circumstances ]

Physical Parameter Table
Parameter Symbol Value Units Sigma Reference Notes
absolute magnitude H 14.7 mag n/a PDS3 (MPC 35574)  

11336 Piranesi           Discovered 1996 July 14 by E. W. Elst at the European Southern Observatory.
Giambattista Piranesi (1720-1778), a Venetian architect and etcher who lived and worked in Rome for almost all his life, became with his archaeological works and polemic interventions one of the most famous intellectual figures of eighteenth-century Rome and one of the main inspirers of neoclassicism.
NOTE: some special characters may not display properly (any characters within {} are an attempt to place the proper accent above a character)
Reference: 20081212/MPCPages.arcLast Updated: 2008-12-12

Alternate Designations
 1996 NS3 = 1997 VM 
Ephemeris | Orbit Diagram | Orbital Elements | Physical Parameters | Discovery Circumstances ]
ABOUT SSD CREDITS/AWARDS PRIVACY/COPYRIGHT GLOSSARY LINKS
FirstGov 2013-May-19 04:52 UT
(server date/time)  
NASA Home Page
Site Manager:   Donald K. Yeomans
Webmaster  Alan B. Chamberlin